Weather History for Homer, AK

Change the Weather History Date:

Thursday, August 7, 2014

  Actual Average Record
Temperature  
Mean Temperature 58 °F -  
Max Temperature 63 °F 61 °F 72 °F (1968)
Min Temperature 54 °F 47 °F 39 °F (1963)
Degree Days  
Heating Degree Days 6    
Growing Degree Days 8 (Base 50)    
Moisture  
Dew Point 48 °F    
Average Humidity 68    
Maximum Humidity 80    
Minimum Humidity 56    
Precipitation  
Precipitation 0.02 in - - ()
Sea Level Pressure  
Sea Level Pressure 29.72 in    
Wind  
Wind Speed 4 mph (ENE)    
Max Wind Speed 17 mph    
Max Gust Speed 24 mph    
Visibility 10 miles    
Events Rain    
Averages and records for this station are not official NWS values.
T = Trace of Precipitation, MM = Missing Value Source: NWS Daily Summary

Daily Weather History Graph

Daily Weather History Graph

Search for Another Location

Airport:

Trip Planner

Search our weather history database for the weather conditions in past years. The results will help you decide how hot, cold, wet, or windy it might be!

Date:

Astronomy

Aug. 07, 2014 Rise Set
Actual Time 6:03 AM AKDT 10:18 PM AKDT
Civil Twilight 5:08 AM AKDT 11:12 PM AKDT
Nautical Twilight 3:37 AM AKDT 12:40 AM AKDT
Astronomical Twilight Sun does not rise Sun does not rise
Moon 7:55 PM AKDT (8/7) 2:30 AM AKDT (8/7)
Length of Visible Light 18h 03m
Length of Day
16h 14m
Waxing Gibbous, 88% of the Moon is Illuminated
Aug 7
Waxing Gibbous
Aug 10
Full
Aug 17
Last Quarter
Aug 25
New
Sep 2
First Quarter

Hourly Weather History & Observations

Time (AKDT) Temp. Dew Point Humidity Pressure Visibility Wind Dir Wind Speed Gust Speed Precip Events Conditions
12:53 AM 55.0 °F 48.9 °F 80% 29.93 in 10.0 mi NE 4.6 mph - N/A   Mostly Cloudy
1:53 AM 55.9 °F 48.9 °F 77% 29.91 in 10.0 mi Calm Calm - N/A   Mostly Cloudy
2:53 AM 55.0 °F 48.0 °F 77% 29.90 in 10.0 mi NE 3.5 mph - N/A   Scattered Clouds
3:53 AM 55.9 °F 48.9 °F 77% 29.88 in 10.0 mi Calm Calm - 0.00 in Rain Light Rain
4:53 AM 54.0 °F 48.0 °F 80% 29.86 in 10.0 mi NE 3.5 mph - 0.01 in Rain Light Rain
5:53 AM 54.0 °F 48.0 °F 80% 29.83 in 10.0 mi NNE 4.6 mph - 0.00 in   Overcast
6:53 AM 55.0 °F 48.9 °F 80% 29.81 in 10.0 mi ENE 3.5 mph - 0.00 in   Overcast
7:53 AM 55.9 °F 50.0 °F 80% 29.79 in 10.0 mi ENE 4.6 mph - N/A   Overcast
8:53 AM 57.9 °F 50.0 °F 75% 29.78 in 10.0 mi ENE 3.5 mph - N/A   Overcast
9:53 AM 59.0 °F 51.1 °F 75% 29.75 in 10.0 mi NE 5.8 mph - N/A   Overcast
10:53 AM 61.0 °F 51.1 °F 70% 29.74 in 10.0 mi NE 4.6 mph - N/A   Overcast
11:53 AM 62.1 °F 48.0 °F 60% 29.73 in 10.0 mi ENE 3.5 mph - N/A   Overcast
12:53 PM 62.1 °F 46.9 °F 58% 29.71 in 10.0 mi East 4.6 mph - 0.00 in   Overcast
1:53 PM 63.0 °F 48.9 °F 60% 29.70 in 10.0 mi ENE 3.5 mph - 0.01 in   Overcast
2:53 PM 63.0 °F 48.0 °F 58% 29.68 in 10.0 mi Calm Calm - N/A   Overcast
3:53 PM 62.1 °F 46.9 °F 58% 29.67 in 10.0 mi East 5.8 mph - 0.00 in Rain Light Rain
4:53 PM 62.1 °F 46.9 °F 58% 29.65 in 10.0 mi ESE 5.8 mph - 0.00 in   Overcast
5:53 PM 61.0 °F 48.9 °F 64% 29.62 in 10.0 mi Calm Calm - 0.00 in Rain Light Rain
6:53 PM 62.1 °F 48.0 °F 60% 29.60 in 10.0 mi ESE 3.5 mph - 0.00 in Rain Light Rain
7:53 PM 61.0 °F 46.9 °F 60% 29.58 in 10.0 mi ESE 4.6 mph - 0.00 in   Overcast
8:53 PM 61.0 °F 46.0 °F 58% 29.55 in 10.0 mi East 8.1 mph - N/A   Overcast
9:53 PM 60.1 °F 46.9 °F 62% 29.55 in 10.0 mi Variable 4.6 mph - N/A   Overcast
10:53 PM 57.9 °F 48.0 °F 70% 29.54 in 10.0 mi North 3.5 mph - 0.00 in Rain Light Rain
11:53 PM 62.1 °F 46.0 °F 56% 29.53 in 10.0 mi East 17.3 mph 24.2 mph 0.00 in Rain Light Rain